Regional Weather Roundup
Issued by NWS

Home | Current Version | Previous Version | Text Only | Print | Product List | Glossary On
Versions: 1 2 3 4 5 6 7 8 9 10 11 12 13 14 15 16 17 18 19 20 21 22 23 24 25 26 27 28 29 30 31 32 33 34 35 36 37 38 39 40 41 42 43 44 45 46 47 48 49 50
000
ASUS43 KOAX 011110
RWRNE

WEATHER ROUNDUP FOR NEBRASKA
NATIONAL WEATHER SERVICE OMAHA NE
600 AM CDT SUN MAY 01 2016

NOTES: SATELLITE DATA IS BEING USED TO AUGMENT CLOUD COVER ABOVE
       12000 FEET.
       "FAIR" INDICATES FEW OR NO CLOUDS BELOW 12,000 FEET WITH NO
       SIGNIFICANT WEATHER AND/OR OBSTRUCTIONS TO VISIBILITY.

  * THESE STATIONS DO NOT REPORT WEATHER SUCH AS RAIN...SNOW OR FOG.

NEZ001>004-019>022-054>056-011200-
NEBRASKA PANHANDLE

CITY           SKY/WX    TMP DP  RH WIND       PRES   REMARKS
SCOTTSBLUFF    CLOUDY    37  33  85 NW8       30.24S WCI  31
ALLIANCE       CLOUDY    34  33  96 NW10      30.21S WCI  26
CHADRON        CLOUDY    37  32  82 N6        30.26R WCI  32
KIMBALL        LGT SNOW  33  33  98 N9        30.22R WCI  25
SIDNEY         CLOUDY    34  32  92 N17       30.20R WCI  23
$$

NEZ057>060-069>072-079>082-011200-
SOUTHWEST NEBRASKA

CITY           SKY/WX    TMP DP  RH WIND       PRES   REMARKS
NORTH PLATTE   CLOUDY    36  34  92 N10       30.12R WCI  28
IMPERIAL       CLOUDY    35  33  92 N21       30.14R WCI  24
LEXINGTON      LGT RAIN  38  35  89 N15       30.06R WCI  30
MCCOOK         LGT RAIN  37  34  89 N17       30.08R WCI  27
OGALLALA       CLOUDY    37  34  89 N18       30.16R WCI  27
$$

NEZ005>010-023>029-035>040-094-011200-
NORTH CENTRAL NEBRASKA

CITY           SKY/WX    TMP DP  RH WIND       PRES   REMARKS
VALENTINE      CLEAR     38  35  89 N14       30.17R WCI  30
AINSWORTH      DRIZZLE   40  39  97 N10       30.15R WCI  34
BROKEN BOW     LGT RAIN  40  38  93 N20G28    30.06R WCI  30
O`NEILL        LGT RAIN  42  40  93 N15G21    30.11R
ORD            LGT RAIN  41  39  93 N17       30.05R
THEDFORD         N/A     37  36  99 N13       30.15R WCI  28
$$

NEZ041-046>049-061>064-073>077-083>087-011200-
SOUTH CENTRAL NEBRASKA

CITY           SKY/WX    TMP DP  RH WIND       PRES   REMARKS
GRAND ISLAND   LGT RAIN  40  39  97 N15       30.01R FOG     WCI  32
AURORA         RAIN      42  41  98 N17G25    29.98R
HASTINGS       LGT RAIN  41  39  93 N20G26    29.98R
HEBRON         LGT RAIN  46  46  97 N8        29.92R
HOLDREGE       CLOUDY    39  37  91 N18G29    30.02R WCI  30
KEARNEY *      CLOUDY    39  36  87 N22       30.03R WCI  29
YORK           LGT RAIN  41  41 100 N17G25    29.96R
$$

NEZ011>018-030>034-042>045-011200-
NORTHEAST NEBRASKA

CITY           SKY/WX    TMP DP  RH WIND       PRES   REMARKS
NORFOLK        LGT RAIN  41  39  93 NE15      30.02R
ALBION         RAIN      40  38  93 NE12G18   30.03R WCI  33
BLAIR          LGT RAIN  44  43  96 NE14      29.94S
COLUMBUS *     CLOUDY    43  34  70 N15       30.00R
FREMONT        RAIN      43  43 100 N7        29.97S
TEKAMAH        LGT RAIN  43  42  97 N16       29.99R
WAYNE          LGT RAIN  42  41  95 NE13      30.04R
$$

NEZ050>053-065>068-078-088>093-011200-
SOUTHEAST NEBRASKA

CITY           SKY/WX    TMP DP  RH WIND       PRES   REMARKS
LINCOLN        CLOUDY    45  43  93 NE14G23   29.95R
OMAHA EPPLEY   DRIZZLE   45  43  93 NE9       29.95R
BEATRICE       CLOUDY    46  46  97 W3        29.91R
FALLS CITY     CLOUDY    49  47  93 W5        29.89R
NEBRASKA CITY  CLOUDY    47  47 100 NE9       29.91R FOG
PLATTSMOUTH    CLOUDY    45  45  99 NE10      29.93R
$$

NEZ044-045-051>053-067-011200-
OMAHA AREA

CITY           SKY/WX    TMP DP  RH WIND       PRES   REMARKS
OMAHA EPPLEY   DRIZZLE   45  43  93 NE9       29.95R
BLAIR          LGT RAIN  44  43  96 NE14      29.94S
FREMONT        RAIN      43  43 100 N7        29.97S
MILLARD        CLOUDY    45  43  95 NE5       29.95R
OFFUTT AFB     CLOUDY    45  45 100 N8        29.94R
PLATTSMOUTH    CLOUDY    45  45  99 NE10      29.93R
WAHOO          CLOUDY    44  43  93 NE15      29.95R
$$



USA.gov is the U.S. government's official web portal to all federal, state and local government web resources and services.